�N����,����,�~����,�C��,���x,�C��,����,���ϕ���,�ő�u�ԕ���,�ő厞����,���˗�,�I�_���x,�n�����x,�ő啗���N��,DTYPE
"16/06/16","00:10",0.0,22.3,83.3,1001.0,316.9,1.2,1.7,330.2,0.00,19.4,23.6,"00:03:36",1
"16/06/16","00:20",0.0,22.0,84.0,1001.2,298.1,0.8,1.4,308.4,0.00,19.2,23.4,"00:10:08",1
"16/06/16","00:30",0.0,21.9,84.6,1001.5,308.6,1.0,1.6,311.8,0.00,19.2,23.3,"00:26:24",1
"16/06/16","00:40",0.0,21.8,85.0,1001.5,310.4,1.1,1.6,316.5,0.00,19.2,23.5,"00:37:12",1
"16/06/16","00:50",0.0,21.7,85.3,1001.2,302.3,1.0,1.2,317.4,0.00,19.2,23.2,"00:44:32",1
"16/06/16","01:00",0.0,21.6,85.6,1001.5,297.7,0.8,1.1,311.6,0.00,19.1,23.2,"00:53:12",1
"16/06/16","01:10",0.0,21.5,86.1,1001.2,287.0,0.7,1.1,318.5,0.00,19.1,23.1,"01:00:02",1
"16/06/16","01:20",0.0,21.6,86.0,1001.0,294.0,1.0,1.6,299.0,0.00,19.2,23.2,"01:11:28",1
"16/06/16","01:30",0.0,21.5,86.0,1000.8,307.9,0.8,1.7,327.5,0.00,19.1,23.2,"01:21:44",1
"16/06/16","01:40",0.0,21.5,86.0,1000.8,309.0,1.0,1.3,319.1,0.00,19.1,23.2,"01:30:56",1
"16/06/16","01:50",0.0,21.4,86.5,1000.3,298.6,0.8,1.0,307.4,0.00,19.1,22.8,"01:40:24",1
"16/06/16","02:00",0.0,21.3,86.6,1000.0,315.3,0.6,1.1,297.1,0.00,19.0,23.0,"01:52:16",1
"16/06/16","02:10",0.0,21.3,86.8,1000.5,294.2,0.7,1.0,281.2,0.00,19.1,22.8,"02:01:12",1
"16/06/16","02:20",0.0,21.2,87.0,1000.3,299.6,1.0,1.3,311.7,0.00,19.0,22.9,"02:11:44",1
"16/06/16","02:30",0.0,21.2,87.2,1000.3,301.2,0.6,0.8,307.9,0.00,19.0,22.9,"02:21:28",1
"16/06/16","02:40",0.0,21.2,87.4,1000.5,289.5,0.8,1.3,296.5,0.00,19.1,22.9,"02:35:12",1
"16/06/16","02:50",0.0,21.2,87.3,1000.8,315.8,1.0,1.3,323.2,0.00,19.0,22.8,"02:40:24",1
"16/06/16","03:00",0.0,21.2,87.3,1000.3,302.9,1.0,1.2,312.3,0.00,19.0,22.9,"02:50:24",1
"16/06/16","03:10",0.0,21.2,87.7,999.8,286.4,0.7,1.1,310.9,0.00,19.1,22.6,"03:00:24",1
"16/06/16","03:20",0.0,21.3,88.0,1000.0,271.7,0.7,1.2,259.7,0.00,19.3,22.7,"03:18:00",1
"16/06/16","03:30",0.0,21.4,87.8,1000.3,304.4,1.1,1.6,330.8,0.00,19.3,22.7,"03:25:20",1
"16/06/16","03:40",0.0,21.4,87.6,999.8,307.9,0.8,1.4,317.8,0.00,19.3,22.9,"03:36:40",1
"16/06/16","03:50",0.0,21.3,87.6,999.8,280.2,0.7,2.0,328.1,0.00,19.2,22.7,"03:43:28",1
"16/06/16","04:00",0.0,21.4,87.8,999.8,292.1,0.8,1.3,319.4,0.00,19.3,22.6,"03:58:16",1
"16/06/16","04:10",0.0,21.2,88.1,999.6,313.0,0.8,1.2,315.7,0.00,19.2,22.6,"04:05:12",1
"16/06/16","04:20",0.0,21.2,88.6,999.3,296.8,0.7,1.0,310.5,0.00,19.3,22.6,"04:16:08",1
"16/06/16","04:30",0.0,21.1,88.7,999.1,305.6,1.0,1.2,304.0,0.00,19.2,22.5,"04:29:52",1
"16/06/16","04:40",0.0,21.1,88.4,999.6,300.9,1.1,1.3,306.5,0.00,19.1,22.4,"04:32:48",1
"16/06/16","04:50",0.0,21.1,88.3,999.1,308.9,1.0,1.4,319.8,0.00,19.1,22.6,"04:44:16",1
"16/06/16","05:00",0.0,21.2,88.5,999.3,295.3,0.8,1.2,308.5,0.00,19.3,22.3,"04:50:24",1
"16/06/16","05:10",0.0,21.3,88.3,999.3,297.0,1.0,1.2,308.8,0.00,19.3,22.5,"05:06:56",1
"16/06/16","05:20",0.0,21.4,88.4,998.9,304.5,0.8,1.2,310.1,0.00,19.4,22.3,"05:10:24",1
"16/06/16","05:30",0.0,21.5,89.1,999.1,298.1,0.8,1.2,312.6,0.00,19.7,22.5,"05:27:44",1
"16/06/16","05:40",0.0,21.5,89.0,999.1,299.6,0.8,1.4,319.1,0.00,19.7,22.5,"05:36:24",1
"16/06/16","05:50",0.0,21.7,88.9,998.9,306.6,0.8,1.7,315.9,0.00,19.8,22.4,"05:49:28",1
"16/06/16","06:00",0.0,21.9,88.8,998.9,305.9,1.0,1.6,315.7,0.01,20.0,22.4,"05:53:52",1
"16/06/16","06:10",0.0,22.1,88.5,998.6,290.4,0.8,1.1,310.8,0.02,20.2,22.6,"06:05:28",1
"16/06/16","06:20",0.0,22.2,87.8,998.4,281.9,0.7,1.0,277.5,0.02,20.1,22.4,"06:10:02",1
"16/06/16","06:30",0.0,22.4,86.8,998.9,288.0,1.1,1.2,307.3,0.02,20.1,22.5,"06:21:52",1
"16/06/16","06:40",0.0,22.6,86.2,998.6,297.7,1.0,1.2,316.0,0.02,20.2,22.6,"06:36:08",1
"16/06/16","06:50",0.0,22.7,86.4,999.1,285.0,0.7,1.1,309.6,0.01,20.4,22.6,"06:42:00",1
"16/06/16","07:00",0.0,22.7,86.8,999.1,317.3,1.1,1.4,331.6,0.01,20.4,22.6,"06:57:36",1
"16/06/16","07:10",0.0,22.9,87.7,998.9,299.6,0.8,1.3,327.1,0.02,20.8,22.7,"07:00:24",1
"16/06/16","07:20",0.0,22.9,87.1,999.1,319.7,0.8,1.6,319.0,0.02,20.7,22.5,"07:18:48",1
"16/06/16","07:30",0.0,23.2,85.0,998.9,350.5,0.5,1.2,38.9,0.03,20.6,22.5,"07:28:08",1
"16/06/16","07:40",0.0,23.6,82.7,998.9,351.0,0.8,2.0,359.2,0.04,20.5,22.7,"07:35:04",1
"16/06/16","07:50",0.0,24.0,81.8,998.9,38.1,0.6,1.7,60.5,0.06,20.7,22.8,"07:48:32",1
"16/06/16","08:00",0.0,24.0,81.7,998.4,53.3,0.5,1.3,85.1,0.05,20.7,22.9,"07:50:24",1
"16/06/16","08:10",0.0,24.0,81.6,997.9,43.7,0.7,1.9,108.2,0.06,20.7,22.9,"08:04:48",1
"16/06/16","08:20",0.0,24.1,81.7,998.2,131.4,0.5,1.7,31.9,0.07,20.8,22.7,"08:11:36",1
"16/06/16","08:30",0.0,24.2,82.0,997.9,87.3,0.5,2.0,146.3,0.08,21.0,22.9,"08:28:08",1
"16/06/16","08:40",0.0,24.2,82.5,998.4,63.5,0.3,1.4,86.7,0.06,21.1,22.8,"08:37:28",1
"16/06/16","08:50",0.0,24.1,82.5,997.9,95.9,0.6,1.4,146.2,0.06,21.0,23.0,"08:46:16",1
"16/06/16","09:00",0.0,24.2,82.1,998.4,116.5,0.8,2.8,141.1,0.08,21.0,23.0,"08:53:28",1
"16/06/16","09:10",0.0,24.3,82.3,998.2,88.7,0.7,1.8,189.2,0.09,21.1,22.9,"09:08:56",1
"16/06/16","09:20",0.0,24.2,81.9,998.4,97.0,1.0,3.2,121.0,0.07,21.0,22.9,"09:14:16",1
"16/06/16","09:30",0.0,24.0,82.1,998.4,95.4,0.8,2.1,100.8,0.05,20.8,23.0,"09:27:36",1
"16/06/16","09:40",0.0,23.9,82.9,997.9,72.5,0.7,2.1,95.9,0.03,20.9,23.0,"09:33:52",1
"16/06/16","09:50",0.2,23.9,83.3,997.7,87.1,0.8,1.8,123.4,0.05,20.9,23.0,"09:49:28",1
"16/06/16","10:00",0.0,23.7,83.9,998.2,131.6,0.8,1.9,125.5,0.04,20.9,23.0,"09:52:32",1
"16/06/16","10:10",0.2,23.8,84.8,998.2,102.4,0.8,2.6,99.4,0.06,21.1,23.1,"10:01:28",1
"16/06/16","10:20",0.0,23.8,85.1,997.7,115.1,0.6,2.4,129.8,0.07,21.2,23.1,"10:11:36",1
"16/06/16","10:30",0.0,23.8,85.0,997.9,78.5,0.8,1.9,168.5,0.08,21.2,23.4,"10:26:24",1
"16/06/16","10:40",0.2,23.8,85.5,997.9,92.3,0.6,1.3,93.8,0.06,21.3,23.1,"10:38:24",1
"16/06/16","10:50",0.2,23.6,85.8,997.7,86.7,0.5,1.9,130.5,0.04,21.1,23.4,"10:44:08",1
"16/06/16","11:00",0.0,23.6,86.2,997.4,85.9,0.6,1.7,85.2,0.04,21.2,23.0,"10:53:36",1
"16/06/16","11:10",0.0,23.6,85.8,997.2,154.7,1.0,2.7,171.2,0.05,21.1,23.2,"11:07:04",1
"16/06/16","11:20",0.0,23.6,86.2,997.0,140.5,1.0,2.2,167.8,0.05,21.2,23.2,"11:14:40",1
"16/06/16","11:30",0.4,23.7,86.7,996.7,102.5,0.6,1.2,105.4,0.06,21.4,23.0,"11:26:48",1
"16/06/16","11:40",0.2,23.6,86.7,996.7,63.8,0.5,2.0,80.5,0.07,21.3,23.2,"11:39:04",1
"16/06/16","11:50",0.0,23.4,85.9,996.5,91.8,0.7,1.8,70.3,0.04,20.9,23.2,"11:47:44",1
"16/06/16","12:00",0.2,23.4,86.4,996.5,94.0,0.8,2.5,77.8,0.04,21.0,23.3,"11:50:32",1
"16/06/16","12:10",0.0,23.4,86.7,996.7,113.5,0.6,1.9,107.8,0.03,21.1,23.1,"12:03:52",1
"16/06/16","12:20",0.6,23.3,87.3,996.3,76.5,0.6,1.6,118.0,0.06,21.1,23.2,"12:13:20",1
"16/06/16","12:30",0.2,23.2,87.4,996.3,76.5,0.7,3.2,131.0,0.06,21.0,23.2,"12:26:40",1
"16/06/16","12:40",0.2,23.0,87.6,996.0,57.1,0.6,1.8,104.6,0.05,20.9,23.2,"12:39:04",1
"16/06/16","12:50",0.0,22.8,87.8,995.8,73.6,0.7,1.8,34.4,0.02,20.7,23.2,"12:47:44",1
"16/06/16","13:00",0.4,22.7,88.5,995.8,76.5,0.7,2.0,123.2,0.04,20.7,23.2,"12:56:32",1
"16/06/16","13:10",0.4,22.7,88.5,995.6,60.7,0.7,2.0,128.8,0.05,20.7,23.1,"13:07:12",1
"16/06/16","13:20",0.4,22.5,89.1,995.8,78.8,0.6,1.9,119.7,0.03,20.7,23.2,"13:10:40",1
"16/06/16","13:30",0.4,22.3,89.5,996.0,68.4,0.6,1.6,92.8,0.02,20.5,23.2,"13:28:50",1
"16/06/16","13:40",1.8,22.0,89.8,996.0,135.2,0.7,1.8,184.9,0.02,20.3,23.1,"13:36:42",1
"16/06/16","13:50",1.4,21.8,90.4,996.5,138.9,1.0,2.1,191.0,0.01,20.2,23.2,"13:46:08",1
"16/06/16","14:00",1.2,21.6,91.2,996.3,129.4,0.8,1.8,123.8,0.01,20.1,22.9,"13:54:32",1
"16/06/16","14:10",1.0,21.6,91.7,996.3,101.8,0.2,0.9,119.9,0.00,20.2,23.0,"14:05:28",1
"16/06/16","14:20",0.8,21.5,91.8,996.0,97.1,0.5,1.2,78.4,0.00,20.2,22.9,"14:14:00",1
"16/06/16","14:30",0.2,21.4,91.9,996.0,100.5,0.5,1.1,31.4,0.00,20.1,22.9,"14:20:48",1
"16/06/16","14:40",0.6,21.5,92.4,995.6,101.3,0.6,1.6,86.8,0.02,20.3,22.7,"14:35:36",1
"16/06/16","14:50",0.2,21.6,92.3,995.8,169.5,0.3,1.1,119.3,0.01,20.3,23.1,"14:40:40",1
"16/06/16","15:00",0.2,21.6,92.3,995.6,347.9,0.5,1.2,347.3,0.00,20.3,22.8,"14:58:32",1
"16/06/16","15:10",0.4,21.5,92.4,995.8,4.0,0.5,1.1,349.5,0.00,20.3,22.6,"15:01:28",1
"16/06/16","15:20",0.6,21.6,92.6,995.6,345.7,0.3,0.8,327.3,0.01,20.4,22.7,"15:10:16",1
"16/06/16","15:30",0.4,21.7,92.7,995.6,340.7,0.5,1.0,332.9,0.02,20.5,22.8,"15:21:44",1
"16/06/16","15:40",0.4,21.7,92.7,995.1,23.8,0.2,0.6,88.4,0.02,20.5,22.8,"15:34:40",1
"16/06/16","15:50",0.2,21.6,92.0,995.6,349.8,0.3,1.4,40.6,0.01,20.3,22.7,"15:48:16",1
"16/06/16","16:00",1.2,21.5,92.2,995.6,106.0,0.3,1.2,2.7,0.02,20.2,22.8,"15:59:52",1
"16/06/16","16:10",1.6,21.4,92.3,995.6,44.9,0.6,1.6,71.5,0.02,20.1,22.7,"16:05:20",1
"16/06/16","16:20",1.2,21.2,92.4,995.3,75.6,0.6,1.7,60.3,0.00,20.0,22.7,"16:16:00",1
"16/06/16","16:30",1.0,21.1,92.7,995.1,62.5,0.5,1.3,53.3,0.00,19.9,22.8,"16:24:24",1
"16/06/16","16:40",1.4,21.0,92.9,995.3,24.6,0.3,1.0,344.5,0.00,19.8,22.6,"16:37:12",1
"16/06/16","16:50",1.4,21.1,93.2,995.1,60.4,0.5,1.6,103.5,0.01,20.0,22.6,"16:46:48",1
"16/06/16","17:00",1.2,21.1,93.4,995.1,40.7,0.5,1.3,2.6,0.00,20.0,22.5,"16:58:32",1
"16/06/16","17:10",0.6,21.0,93.5,995.1,39.2,0.7,1.8,21.1,0.00,20.0,22.6,"17:00:40",1
"16/06/16","17:20",1.0,20.9,93.4,994.8,25.9,0.6,1.9,12.5,0.00,19.8,22.6,"17:13:36",1
"16/06/16","17:30",0.4,21.0,93.7,994.6,1.9,0.5,1.1,24.9,0.00,20.0,22.5,"17:21:28",1
"16/06/16","17:40",0.2,20.9,93.6,994.6,35.1,0.8,1.4,354.9,0.00,19.9,22.5,"17:34:16",1
"16/06/16","17:50",0.4,21.0,93.5,994.6,33.8,0.5,1.3,103.0,0.00,20.0,22.5,"17:43:28",1
"16/06/16","18:00",0.4,20.9,93.5,994.8,13.4,0.1,0.4,357.6,0.00,19.9,22.2,"17:50:48",1
"16/06/16","18:10",0.6,20.9,93.5,995.3,312.6,0.2,0.9,345.3,0.00,19.9,22.4,"18:08:48",1
"16/06/16","18:20",0.6,20.8,93.7,995.1,354.6,0.2,0.8,336.4,0.00,19.8,22.2,"18:10:08",1
"16/06/16","18:30",0.6,20.8,93.9,995.3,259.4,0.2,0.6,335.3,0.00,19.8,22.3,"18:24:48",1
"16/06/16","18:40",0.4,20.8,94.1,995.6,281.2,0.1,0.6,312.9,0.00,19.9,22.2,"18:33:36",1
"16/06/16","18:50",0.4,20.7,94.3,995.3,278.1,0.1,0.5,248.8,0.00,19.8,22.3,"18:42:48",1
"16/06/16","19:00",0.6,20.6,94.4,995.3,260.6,0.3,0.9,227.4,0.00,19.7,22.3,"18:52:16",1
"16/06/16","19:10",0.8,20.6,94.6,995.3,273.9,0.2,0.6,226.3,0.00,19.7,22.2,"19:04:00",1
"16/06/16","19:20",0.8,20.5,94.8,995.8,10.1,0.0,0.3,21.1,0.00,19.7,22.2,"19:11:12",1
"16/06/16","19:30",0.8,20.5,94.8,996.0,262.0,0.3,1.0,246.9,0.00,19.7,22.2,"19:28:32",1
"16/06/16","19:40",0.4,20.4,95.0,996.0,301.6,0.1,0.5,262.4,0.00,19.6,22.0,"19:30:16",1
"16/06/16","19:50",0.4,20.4,95.1,995.8,301.4,0.2,0.5,311.5,0.00,19.6,22.0,"19:47:20",1
"16/06/16","20:00",0.4,20.4,95.2,996.3,317.5,0.1,0.5,310.9,0.00,19.6,22.0,"19:50:08",1
"16/06/16","20:10",0.2,20.3,95.3,995.8,263.5,0.0,0.5,235.8,0.00,19.6,22.2,"20:06:56",1
"16/06/16","20:20",0.4,20.3,95.3,995.8,336.7,0.0,0.3,338.9,0.00,19.6,21.9,"20:10:56",1
"16/06/16","20:30",0.2,20.3,95.4,996.3,1.2,0.0,0.4,348.6,0.00,19.6,22.0,"20:25:28",1
"16/06/16","20:40",0.4,20.4,95.5,996.3,300.0,0.0,0.4,250.7,0.00,19.7,21.8,"20:36:56",1
"16/06/16","20:50",0.2,20.4,95.5,996.3,322.1,0.1,0.5,350.7,0.00,19.7,21.9,"20:47:12",1
"16/06/16","21:00",0.2,20.4,95.6,996.5,349.2,0.2,0.6,350.0,0.00,19.7,21.9,"20:55:44",1
"16/06/16","21:10",0.2,20.4,95.6,996.5,329.2,0.1,0.5,296.1,0.00,19.7,22.0,"21:03:12",1
"16/06/16","21:20",0.2,20.4,95.6,997.2,309.7,0.2,0.5,313.3,0.00,19.7,21.8,"21:18:08",1
"16/06/16","21:30",0.4,20.3,95.6,996.7,323.1,0.1,1.1,340.4,0.00,19.6,21.9,"21:22:24",1
"16/06/16","21:40",0.4,20.3,95.7,996.7,295.8,0.1,0.3,302.1,0.00,19.6,22.1,"21:30:08",1
"16/06/16","21:50",0.4,20.3,95.7,996.7,328.8,0.2,0.9,6.9,0.00,19.6,22.0,"21:41:44",1
"16/06/16","22:00",0.4,20.3,95.8,996.7,252.0,0.2,0.6,232.7,0.00,19.6,21.9,"21:54:32",1
"16/06/16","22:10",0.2,20.3,95.8,997.0,253.6,0.3,0.9,219.9,0.00,19.6,21.9,"22:06:56",1
"16/06/16","22:20",0.2,20.3,95.8,996.7,316.8,0.2,0.5,301.6,0.00,19.6,21.9,"22:10:08",1
"16/06/16","22:30",0.2,20.3,95.9,996.7,310.1,0.2,0.9,352.4,0.00,19.7,21.9,"22:21:28",1
"16/06/16","22:40",0.0,20.3,95.9,996.7,317.3,0.2,0.6,327.5,0.00,19.7,21.7,"22:34:56",1
"16/06/16","22:50",0.2,20.2,95.9,996.5,257.4,0.6,0.9,236.7,0.00,19.6,21.6,"22:42:00",1
"16/06/16","23:00",0.2,20.3,95.9,996.7,291.9,0.2,0.6,320.6,0.00,19.7,21.9,"22:59:52",1
"16/06/16","23:10",0.2,20.2,95.9,996.5,297.9,0.1,0.6,298.8,0.00,19.6,21.7,"23:00:56",1
"16/06/16","23:20",0.0,20.2,96.0,996.7,282.1,0.2,0.4,291.5,0.00,19.6,21.9,"23:17:52",1
"16/06/16","23:30",0.2,20.3,96.0,996.5,299.2,0.2,0.5,336.7,0.00,19.7,21.7,"23:22:08",1
"16/06/16","23:40",0.0,20.2,96.0,996.5,250.9,0.1,0.4,265.4,0.00,19.6,21.8,"23:30:08",1
"16/06/16","23:50",0.2,20.2,96.1,996.5,309.2,0.2,0.5,317.9,0.00,19.6,21.9,"23:42:00",1
"16/06/16","24:00",0.0,20.2,96.1,996.7,297.1,0.1,0.8,1.2,0.00,19.6,21.7,"23:54:32",1
